Terminal Aerodrome Forecast
Issued by NWS King Salmon, AK

Home | Current Version | Previous Version | Text Only | Print | Product List | Glossary On
Versions: 1 2 3 4 5 6 7 8 9 10 11 12
000
FTAK31 PANC 050529
TAFAKN
TAF
PAKN 050529Z 0506/0606 36006KT P6SM SKC
     FM051400 03008KT P6SM SCT050 OVC090
     FM052200 05008KT P6SM -SHSN BKN025
     FM060100 06010KT 2SM -SN BR BKN015=

USA.gov is the U.S. government's official web portal to all federal, state and local government web resources and services.